Location: Liberec
(50.7830°N, 15.0500°E)
Time: 03:32:04
(UTC+01:00)

ISS - Visible Passes

Search period start: 12 December 2018 00:00
Search period end: 22 December 2018 00:00
Orbit: 401 x 408 km, 51.6° (Epoch: 12 December)

Date Brightness Start Highest point End Pass type
(mag) Time Alt. Az. Time Alt. Az. Time Alt. Az.
12 Dec -1.5 17:22:38 10° W 17:25:20 24° SW 17:28:02 10° SSE visible
13 Dec -2.1 16:30:14 10° W 16:33:16 36° SSW 16:36:17 10° SE visible
14 Dec -0.6 17:15:26 10° WSW 17:17:04 13° SW 17:18:42 10° S visible
